Weather in Shcheglovo

Russia / Novosibirsk Oblast     55°20′59″N   76°33′51″E
temp.,
°C
wind,
m/s
gust,
m/s
humid.,
%
clouds,
%
prec.,
mm/h
press.,
hPa
HPBL,
m
31 july, sat
sat3101:00+15s5125831 0.0 1012199
04:00+16ssw61746100 0.0 1011389
07:00+16ssw71545100 0.0 1010343
10:00+18ssw61345100 0.0 1010482
13:00+15ssw71587100 0.6 1010447
16:00+20sw6106980 0.0 10101028
19:00+22sw485711 0.0 10091257
22:00+18s33659 0.0 100938
1 august, sun
sun101:00+17wsw22670 0.0 101021
04:00+15n34930 0.0 101046
07:00+14n35955 0.0 1011106
10:00+20nne337120 0.0 1011499
13:00+24n22568 0.0 10111205
16:00+26nw224972 0.0 10101757
19:00+26nw234747 0.0 10091447
22:00+20ese236571 0.0 100816
2 august, mon
mon201:00+19sse2370100 0.0 100864
04:00+18ssw3580100 0.3 100784
07:00+18ssw3586100 0.5 1006122
10:00+22wsw46746 0.1 1006584
13:00+25w566697 1.0 10051304
16:00+28nw794115 1.4 10042363
19:00+27nw694434 1.4 10052234
22:00+20wnw4106380 0.0 1006187
3 august, tue
tue301:00+17nw377772 0.0 1007106
04:00+15wnw498712 0.0 1007168
07:00+15wnw49900 0.0 1008222
10:00+20nw69650 0.0 1009726
13:00+24nw794826 0.0 10091897
16:00+25nnw794185 0.0 10092159
19:00+23n4752100 0.0 10091043
22:00+19nw236792 0.1 101042
4 august, wed
wed401:00+16nw358084 0.1 101087
04:00+14nw359381 0.0 101182
07:00+14nw36910 0.0 1011135
10:00+20nnw57640 0.0 1012619
13:00+24nw674620 0.0 10112080
16:00+26nnw683748 0.0 10102752
19:00+25nne574497 0.0 10101764
22:00+20n2360100 0.0 101146